Location: Amsterdam
(30.7274°N, 84.4357°W)
Time: 21:17:16
(UTC+00:00)

Injun/Solrad 3 - Pass Details

Date: 18 February 2026
Orbit: 872 x 984 km, 66.8° (Epoch: 8 March)

Event Time Altitude Azimuth Distance (km) Brightness Sun altitude
Rises 16:06:37 0° 202° (SSW) 3,445 11.2 40.8°
Reaches altitude 10° 16:09:05 10° 201° (SSW) 2,508 10.7 41.1°
Maximum altitude 16:14:52 85° 115° (ESE) 880 8.7 41.8°
Drops below altitude 10° 16:20:45 10° 26° (NNE) 2,544 10.0 42.5°
Sets 16:23:15 0° 26° (NNE) 3,498 10.7 42.8°
